Location: eljas
(40.1958°N, 6.8661°W)
Time: 19:21:37
(UTC+02:00)

Amateur Radio Satellites - All Passes

Search period start: 29 March 2015 18:51
Search period end: 30 March 2015 18:51
Location: eljas, 40.1958°N, 6.8661°W

Satellite Date Start Highest point End Downlink Frequencies (MHz)
Time Altitude Azimuth
M-CUBED/EXP-1 PRIME 29 Mar 19:04:45 19:08:23 21° 97° (E) 19:12:05 437.505
MOZHAYETS 4 29 Mar 19:18:32 19:23:13 89° 103° (ESE) 19:27:51
RS-15 29 Mar 19:19:44 19:27:09 23° 103° (ESE) 19:35:12 29.354- 29.394
JAS-2 29 Mar 19:22:42 19:28:10 24° 273° (W) 19:33:49 435.910
CUTE-I 29 Mar 19:38:48 19:44:03 60° 73° (ENE) 19:49:21 437.470
Cubesat XI-IV 29 Mar 19:38:56 19:44:13 61° 73° (ENE) 19:49:32 437.490
GONETS M04 29 Mar 19:44:40 19:49:38 18° 80° (E) 19:55:09
AO-7 29 Mar 19:56:05 19:59:27 12° 275° (W) 20:02:05 29.400- 29.500
BEESAT 2 29 Mar 20:04:56 20:07:55 19° 45° (NE) 20:10:58 435.950
AUBIESAT-1 29 Mar 20:14:13 20:19:06 84° 289° (WNW) 20:23:50 437.475
STRAND 1 29 Mar 20:14:46 20:17:21 14° 89° (E) 20:20:12 437.568
PRISM 29 Mar 20:20:31 20:23:43 21° 94° (E) 20:26:58 437.425
SO-50 29 Mar 20:23:18 20:27:39 45° 116° (ESE) 20:32:13 436.795
M-CUBED/EXP-1 PRIME 29 Mar 20:38:49 20:43:27 43° 293° (WNW) 20:47:57 437.505
BEESAT 3 29 Mar 20:41:30 20:45:30 47° 54° (NE) 20:49:26 437.485
BRITE-PL 29 Mar 20:54:56 20:57:41 16° 68° (ENE) 21:00:31 437.365/2234.400
CUBESAT XI-V 29 Mar 21:05:26 21:10:06 89° 273° (W) 21:14:42 437.345
AIST 2 29 Mar 21:16:02 21:19:55 33° 51° (NE) 21:23:45 435.215
CUTE-I 29 Mar 21:21:07 21:24:38 17° 270° (W) 21:27:54 437.470
Cubesat XI-IV 29 Mar 21:21:21 21:24:49 17° 270° (W) 21:28:03 437.490
RS-15 29 Mar 21:27:22 21:38:18 86° 303° (WNW) 21:49:27 29.354- 29.394
DOVE 4 29 Mar 21:30:51 21:33:18 15° 67° (ENE) 21:35:53 437.250
CANX-2 29 Mar 21:33:58 21:37:14 23° 69° (ENE) 21:40:37 2200.000
GONETS M04 29 Mar 21:36:44 21:45:26 88° 275° (W) 21:54:15
GOMX 1 29 Mar 21:40:34 21:44:25 30° 72° (ENE) 21:48:11 467.674
BEESAT 2 29 Mar 21:42:22 21:46:20 45° 243° (WSW) 21:50:13 435.950
HO-68 29 Mar 21:43:14 21:50:01 49° 67° (ENE) 21:56:54 435.675
CUTE 1.7 + AOD 2 29 Mar 21:47:30 21:51:08 29° 70° (ENE) 21:54:50 437.475
AUBIESAT-1 29 Mar 21:51:38 21:53:12 11° 304° (NW) 21:54:31 437.475
STRAND 1 29 Mar 21:52:02 21:57:06 64° 287° (WNW) 22:02:08 437.568
PRISM 29 Mar 21:55:35 21:59:15 30° 290° (WNW) 22:02:51 437.425
CUSAT 1 29 Mar 21:56:15 21:56:19 10° 94° (E) 21:56:32 437.405
SO-50 29 Mar 22:04:35 22:08:26 24° 315° (NW) 22:12:19 436.795
AAUSAT CUBESAT 2 29 Mar 22:11:54 22:15:34 31° 71° (ENE) 22:19:19 437.432
SEEDS 29 Mar 22:16:13 22:20:17 50° 74° (ENE) 22:24:25 437.485
BEESAT 3 29 Mar 22:20:43 22:23:12 15° 249° (WSW) 22:25:31 437.485
BRITE-PL 29 Mar 22:31:22 22:36:00 48° 261° (W) 22:40:18 437.365/2234.400
Oscar 11 29 Mar 22:37:26 22:41:08 29° 70° (ENE) 22:44:56 145.826/435.025
COMPASS 1 29 Mar 22:38:30 22:42:40 75° 76° (ENE) 22:46:53 437.405
DANDE 29 Mar 22:43:02 22:46:01 39° 98° (E) 22:48:36 436.750
CINEMA 3 29 Mar 22:45:40 22:49:45 51° 74° (ENE) 22:53:48 145.822/145.860
FUNcube-1 29 Mar 22:48:58 22:51:52 19° 68° (ENE) 22:54:53 145.935
UWE-3 29 Mar 22:52:46 22:56:12 26° 70° (ENE) 22:59:44 435.000/436.395/437.385
AIST 2 29 Mar 22:54:57 22:58:23 23° 247° (WSW) 23:01:40 435.215
CUBEBUG 2 29 Mar 22:57:32 23:01:19 36° 72° (ENE) 23:05:10 437.445
ZACube-1 29 Mar 23:01:15 23:04:41 26° 70° (ENE) 23:08:13 437.345
AISAT 29 Mar 23:05:36 23:07:01 12° 63° (ENE) 23:08:40 437.250
DOVE 4 29 Mar 23:06:39 23:10:51 44° 261° (W) 23:14:53 437.250
CANX-2 29 Mar 23:09:19 23:13:03 29° 265° (W) 23:16:47 2200.000
GOMX 1 29 Mar 23:19:00 23:22:38 23° 266° (W) 23:26:02 467.674
CUTE 1.7 + AOD 2 29 Mar 23:23:40 23:27:05 23° 267° (W) 23:30:26 437.475
DELFI C3 29 Mar 23:25:56 23:30:00 81° 77° (ENE) 23:34:07 145.870
HO-68 29 Mar 23:31:43 23:38:01 31° 265° (W) 23:44:12 435.675
ESTCUBE 1 29 Mar 23:35:00 23:36:43 12° 64° (ENE) 23:38:41 437.505/2401.250
CUSAT 1 29 Mar 23:37:08 23:39:00 16° 286° (WNW) 23:40:42 437.405
GONETS M04 29 Mar 23:38:05 23:43:50 18° 300° (WNW) 23:49:10
RS-15 29 Mar 23:43:15 23:52:34 30° 330° (NNW) 00:01:56 29.354- 29.394
UKube-1 29 Mar 23:43:16 23:47:33 63° 74° (ENE) 23:51:52 .
ANTELSAT 29 Mar 23:48:00 23:48:50 11° 88° (E) 23:50:01 437.575/2403.000
AAUSAT CUBESAT 2 29 Mar 23:48:07 23:51:18 20° 267° (W) 23:54:24 437.432
HUMSAT D 29 Mar 23:51:01 23:54:57 48° 73° (ENE) 23:58:56 437.325/437.525
DX 1 29 Mar 23:53:30 23:57:53 87° 76° (ENE) 00:02:16 434.975-435.025
SEEDS 29 Mar 23:54:25 23:56:29 13° 271° (W) 23:58:20 437.485
Oscar 11 30 Mar 00:13:52 00:17:22 23° 267° (W) 00:20:47 145.826/435.025
FUNcube-1 30 Mar 00:24:16 00:28:01 33° 263° (W) 00:31:47 145.935
CINEMA 3 30 Mar 00:25:35 00:27:22 12° 271° (W) 00:28:54 145.822/145.860
POPSAT HIP 1 30 Mar 00:27:31 00:29:31 13° 90° (E) 00:31:43 437.405
ISS 30 Mar 00:28:16 00:31:30 64° 139° (SE) 00:34:44 145.825
UWE-3 30 Mar 00:29:23 00:32:46 23° 266° (W) 00:36:05 435.000/436.395/437.385
CUBEBUG 1 30 Mar 00:33:53 00:38:03 43° 73° (ENE) 00:42:15 437.445
VELOX 1 30 Mar 00:33:55 00:38:22 82° 255° (WSW) 00:42:51 145.980
CUBEBUG 2 30 Mar 00:35:27 00:38:14 17° 268° (W) 00:40:53 437.445
50 SAT 30 Mar 00:35:58 00:39:52 73° 258° (WSW) 00:43:49 437.505
NANOSAT C BR1 30 Mar 00:37:26 00:40:13 18° 92° (E) 00:43:08 145.865
ZACube-1 30 Mar 00:37:42 00:41:04 23° 266° (W) 00:44:24 437.345
AISAT 30 Mar 00:38:41 00:43:08 70° 258° (WSW) 00:47:34 437.250
UNISAT 6 30 Mar 00:41:11 00:45:32 41° 98° (E) 00:49:57 437.425
POLYITAN 1 30 Mar 00:41:32 00:44:38 20° 93° (E) 00:47:51 437.675
PCSat 30 Mar 00:43:30 00:47:55 25° 48° (NE) 00:52:25 145.827
SPROUT 30 Mar 00:44:30 00:46:48 15° 66° (ENE) 00:49:17 437.525
TIGRISAT 30 Mar 00:51:17 00:55:45 51° 99° (E) 01:00:18 435.000
ESTCUBE 1 30 Mar 01:08:33 01:13:06 69° 259° (WSW) 01:17:39 437.505/2401.250
QB50P1 30 Mar 01:17:57 01:22:05 51° 100° (E) 01:26:13 145.935-145.965
DUCHIFAT 1 30 Mar 01:19:44 01:23:51 52° 100° (E) 01:27:59 145.980
ANTELSAT 30 Mar 01:21:37 01:26:12 73° 285° (WNW) 01:30:52 437.575/2403.000
UKube-1 30 Mar 01:22:52 01:24:12 11° 271° (W) 01:25:16 .
HUMSAT D 30 Mar 01:29:09 01:31:05 13° 271° (W) 01:32:49 437.325/437.525
QB50P2 30 Mar 01:32:46 01:37:01 79° 102° (ESE) 01:41:16 145.880/145.840
YUBILEINY 30 Mar 01:34:28 01:41:49 30° 67° (ENE) 01:49:20 435.215
BUGSAT 1 30 Mar 01:59:54 02:03:55 71° 285° (WNW) 02:07:56 437.445
POPSAT HIP 1 30 Mar 02:01:39 02:05:45 49° 287° (WNW) 02:09:50 437.405
RS-15 30 Mar 02:02:39 02:10:05 19° 4° (N) 02:17:45 29.354- 29.394
ISS 30 Mar 02:05:35 02:08:09 21° 338° (NNW) 02:10:42 145.825
TISAT 1 30 Mar 02:07:08 02:11:22 79° 257° (WSW) 02:15:36 437.305
CUBEBUG 1 30 Mar 02:11:50 02:14:42 16° 269° (W) 02:17:23 437.445
NANOSAT C BR1 30 Mar 02:12:20 02:16:15 37° 288° (WNW) 02:20:08 145.865
ITUPSAT 1 30 Mar 02:12:30 02:15:53 20° 66° (ENE) 02:19:24 437.325
POLYITAN 1 30 Mar 02:16:50 02:20:40 33° 289° (WNW) 02:24:27 437.675
SPROUT 30 Mar 02:18:22 02:22:33 49° 261° (W) 02:26:44 437.525
UNISAT 6 30 Mar 02:18:43 02:22:04 20° 293° (WNW) 02:25:22 437.425
PCSat 30 Mar 02:26:24 02:31:39 50° 247° (WSW) 02:36:50 145.827
TIGRISAT 30 Mar 02:29:16 02:32:10 16° 294° (WNW) 02:34:56 435.000
Oscar 19 30 Mar 02:48:27 02:51:22 16° 89° (E) 02:54:32 437.125/150
QB50P1 30 Mar 02:55:19 02:57:36 14° 294° (WNW) 02:59:42 145.935-145.965
DUCHIFAT 1 30 Mar 02:57:07 02:59:18 14° 295° (WNW) 03:01:19 145.980
SWISSCUBE 30 Mar 02:58:41 03:03:25 62° 74° (ENE) 03:08:12 437.505
BEESAT 30 Mar 03:01:37 03:06:20 61° 74° (ENE) 03:11:06 436.000
KKS-1 30 Mar 03:08:33 03:10:30 13° 64° (ENE) 03:12:40 437.445
YUBILEINY 30 Mar 03:30:38 03:39:17 60° 268° (W) 03:47:48 435.215
STARS 30 Mar 03:38:57 03:41:46 17° 66° (ENE) 03:44:43 437.465
ISS 30 Mar 03:44:27 03:45:30 11° 358° (N) 03:46:33 145.825
ITUPSAT 1 30 Mar 03:48:52 03:53:29 45° 261° (W) 03:58:07 437.325
ITAMSAT 1 30 Mar 03:53:54 03:57:40 21° 92° (E) 04:01:34 435.822/435.867
RS-15 30 Mar 04:16:58 04:27:09 37° 37° (NE) 04:37:55 29.354- 29.394
Oscar 19 30 Mar 04:26:06 04:31:13 61° 287° (WNW) 04:36:19 437.125/150
SWISSCUBE 30 Mar 04:39:18 04:41:47 13° 271° (W) 04:44:01 437.505
BEESAT 30 Mar 04:42:10 04:44:41 14° 271° (W) 04:46:58 436.000
KKS-1 30 Mar 04:42:18 04:46:42 61° 259° (W) 04:51:06 437.445
Gurwin Techsat 1B 30 Mar 04:43:43 04:48:53 51° 99° (E) 04:54:03 435.225
O/OREOS (USA 219) 30 Mar 04:44:48 04:47:19 15° 100° (E) 04:50:01 437.305
SO-50 30 Mar 04:55:09 04:59:46 38° 50° (NE) 05:04:23 436.795
HORYU 2 30 Mar 05:11:22 05:14:39 20° 93° (E) 05:18:04 437.375
STARS 30 Mar 05:13:46 05:17:57 43° 261° (W) 05:22:08 437.465
ISS 30 Mar 05:20:44 05:22:56 17° 18° (NNE) 05:25:09 145.825
AUBIESAT-1 30 Mar 05:30:14 05:31:46 12° 57° (ENE) 05:33:33 437.475
ITAMSAT 1 30 Mar 05:32:30 05:37:27 46° 289° (WNW) 05:42:21 435.822/435.867
M-CUBED/EXP-1 PRIME 30 Mar 05:53:07 05:56:17 23° 62° (ENE) 05:59:46 437.505
AO-7 30 Mar 05:59:06 06:06:45 41° 98° (E) 06:14:29 29.400- 29.500
AIST 1 30 Mar 06:12:40 06:17:04 72° 279° (W) 06:21:28
VERMONT LUNAR 30 Mar 06:17:18 06:19:35 17° 150° (SSE) 06:21:54 437.305
MOZHAYETS 4 30 Mar 06:19:41 06:24:17 78° 77° (ENE) 06:28:57
O/OREOS (USA 219) 30 Mar 06:21:52 06:26:20 51° 296° (WNW) 06:30:51 437.305
Gurwin Techsat 1B 30 Mar 06:24:36 06:28:32 21° 295° (WNW) 06:32:20 435.225
RS-15 30 Mar 06:29:18 06:40:50 78° 241° (WSW) 06:52:50 29.354- 29.394
JAS-2 30 Mar 06:31:00 06:38:43 64° 100° (E) 06:45:46 435.910
SO-50 30 Mar 06:35:59 06:40:13 28° 247° (WSW) 06:44:20 436.795
HORYU 2 30 Mar 06:47:18 06:51:28 37° 289° (WNW) 06:55:35 437.375
ISS 30 Mar 06:56:32 06:59:46 79° 36° (NE) 07:03:00 145.825
PHONESAT 2.4 30 Mar 07:01:16 07:03:34 17° 149° (SSE) 07:05:56 2401.200-2431.200
AUBIESAT-1 30 Mar 07:01:59 07:05:58 70° 254° (WSW) 07:10:21 437.475
PRISM 30 Mar 07:11:04 07:13:40 16° 66° (ENE) 07:16:23 437.425
M-CUBED/EXP-1 PRIME 30 Mar 07:27:26 07:31:02 31° 260° (W) 07:34:53 437.505
STRAND 1 30 Mar 07:29:47 07:33:32 21° 65° (ENE) 07:37:26 437.568
GONETS M04 30 Mar 07:47:50 07:56:11 46° 74° (ENE) 08:04:38
AO-7 30 Mar 07:51:52 07:59:40 45° 296° (WNW) 08:07:20 29.400- 29.500
VERMONT LUNAR 30 Mar 07:53:37 07:56:56 62° 164° (SSE) 08:00:15 437.305
CUTE-I 30 Mar 07:57:09 08:01:23 24° 93° (E) 08:05:44 437.470
Cubesat XI-IV 30 Mar 07:57:27 08:01:44 25° 93° (E) 08:06:07 437.490
CUBESAT XI-V 30 Mar 08:07:58 08:12:41 83° 77° (ENE) 08:17:24 437.345
JAS-2 30 Mar 08:16:49 08:23:10 28° 298° (WNW) 08:28:58 435.910
CUSAT 1 30 Mar 08:29:12 08:31:55 16° 73° (ENE) 08:35:18 437.405
ISS 30 Mar 08:35:08 08:35:47 10° 231° (SW) 08:36:17 145.825
PHONESAT 2.4 30 Mar 08:38:03 08:41:31 59° 164° (SSE) 08:45:01 2401.200-2431.200
RS-15 30 Mar 08:44:36 08:51:50 18° 259° (W) 08:58:18 29.354- 29.394
PRISM 30 Mar 08:44:49 08:48:51 43° 261° (W) 08:52:53 437.425
STRAND 1 30 Mar 09:07:30 09:12:27 47° 261° (W) 09:17:25 437.568
DANDE 30 Mar 09:20:44 09:24:33 37° 79° (ENE) 09:29:35 436.750
VERMONT LUNAR 30 Mar 09:31:16 09:34:37 82° 1° (N) 09:37:59 437.305
CUTE-I 30 Mar 09:36:41 09:41:39 41° 290° (WNW) 09:46:34 437.470
Cubesat XI-IV 30 Mar 09:37:02 09:42:00 40° 290° (WNW) 09:46:55 437.490
GONETS M04 30 Mar 09:44:58 09:52:57 39° 273° (W) 10:00:47
CUSAT 1 30 Mar 10:10:25 10:14:42 51° 262° (W) 10:20:23 437.405
PHONESAT 2.4 30 Mar 10:16:18 10:19:51 83° 360° (N) 10:23:24 2401.200-2431.200
COMPASS 1 30 Mar 10:24:33 10:26:23 13° 89° (E) 10:28:28 437.405
BRITE-PL 30 Mar 10:36:06 10:40:12 49° 100° (E) 10:44:30 437.365/2234.400
CINEMA 3 30 Mar 10:42:12 10:44:14 13° 90° (E) 10:46:32 145.822/145.860
CANX-2 30 Mar 10:54:40 10:58:50 47° 99° (E) 11:03:01 2200.000
HO-68 30 Mar 10:58:43 11:05:43 53° 100° (E) 11:12:44 435.675
DANDE 30 Mar 11:04:40 11:07:50 19° 264° (W) 11:11:27 436.750
DOVE 4 30 Mar 11:05:28 11:09:38 45° 99° (E) 11:14:03 437.250
CUTE 1.7 + AOD 2 30 Mar 11:08:26 11:12:43 62° 100° (E) 11:17:00 437.475
DELFI C3 30 Mar 11:08:28 11:09:51 12° 89° (E) 11:11:27 145.870
VERMONT LUNAR 30 Mar 11:09:00 11:12:17 54° 198° (SSW) 11:15:35 437.305
GOMX 1 30 Mar 11:19:36 11:23:54 83° 283° (WNW) 11:28:25 467.674
POPSAT HIP 1 30 Mar 11:21:55 11:22:29 10° 64° (ENE) 11:23:18 437.405
AAUSAT CUBESAT 2 30 Mar 11:30:33 11:34:47 65° 101° (ESE) 11:38:58 437.432
NANOSAT C BR1 30 Mar 11:30:48 11:32:44 13° 65° (ENE) 11:34:53 145.865
UKube-1 30 Mar 11:34:14 11:35:04 11° 89° (E) 11:36:12 .
POLYITAN 1 30 Mar 11:35:09 11:37:32 15° 66° (ENE) 11:40:05 437.675
BEESAT 2 30 Mar 11:35:54 11:39:41 37° 115° (ESE) 11:43:32 435.950
SEEDS 30 Mar 11:36:45 11:41:03 75° 284° (WNW) 11:45:19 437.485
UNISAT 6 30 Mar 11:40:11 11:43:58 32° 71° (ENE) 11:47:52 437.425
DX 1 30 Mar 11:43:52 11:46:21 15° 91° (E) 11:49:00 434.975-435.025
TIGRISAT 30 Mar 11:49:55 11:53:53 40° 72° (ENE) 11:57:56 435.000
PHONESAT 2.4 30 Mar 11:54:41 11:58:11 59° 197° (SSW) 12:01:41 2401.200-2431.200
COMPASS 1 30 Mar 11:58:19 12:02:28 51° 286° (WNW) 12:06:35 437.405
Oscar 11 30 Mar 12:00:41 12:05:02 65° 101° (E) 12:09:22 145.826/435.025
QB50P1 30 Mar 12:10:22 12:14:12 36° 72° (ENE) 12:18:06 145.935-145.965
DUCHIFAT 1 30 Mar 12:11:50 12:15:40 36° 72° (ENE) 12:19:33 145.980
BEESAT 3 30 Mar 12:11:51 12:15:56 74° 303° (WNW) 12:20:05 437.485
FUNcube-1 30 Mar 12:12:30 12:16:43 44° 99° (E) 12:21:02 145.935
50 SAT 30 Mar 12:15:41 12:17:54 15° 91° (E) 12:20:17 437.505
BRITE-PL 30 Mar 12:16:10 12:18:28 14° 293° (WNW) 12:20:38 437.365/2234.400
CINEMA 3 30 Mar 12:17:29 12:21:49 56° 285° (WNW) 12:26:20 145.822/145.860
UWE-3 30 Mar 12:18:26 12:22:50 67° 101° (E) 12:27:20 435.000/436.395/437.385
ANTELSAT 30 Mar 12:20:14 12:24:30 87° 251° (WSW) 12:28:52 437.575/2403.000
CUBEBUG 2 30 Mar 12:24:51 12:29:18 86° 285° (WNW) 12:33:53 437.445
QB50P2 30 Mar 12:25:08 12:29:14 54° 74° (ENE) 12:33:23 145.880/145.840
ZACube-1 30 Mar 12:25:33 12:29:56 64° 101° (ESE) 12:34:23 437.345
VELOX 1 30 Mar 12:26:03 12:29:11 19° 93° (E) 12:32:25 145.980
AISAT 30 Mar 12:30:48 12:34:14 23° 94° (E) 12:37:45 437.250
CANX-2 30 Mar 12:31:48 12:34:26 16° 294° (WNW) 12:36:55 2200.000
DELFI C3 30 Mar 12:41:24 12:45:25 52° 286° (WNW) 12:49:23 145.870
DOVE 4 30 Mar 12:44:22 12:47:11 17° 292° (WNW) 12:49:54 437.250
CUTE 1.7 + AOD 2 30 Mar 12:46:20 12:48:11 12° 295° (WNW) 12:49:51 437.475
HO-68 30 Mar 12:47:02 12:53:10 30° 298° (WNW) 12:59:08 435.675
VERMONT LUNAR 30 Mar 12:47:39 12:49:35 14° 212° (SSW) 12:51:27 437.305
BUGSAT 1 30 Mar 12:49:10 12:53:19 72° 77° (ENE) 12:57:26 437.445
AIST 2 30 Mar 12:51:21 12:55:36 84° 121° (ESE) 12:59:56 435.215
POPSAT HIP 1 30 Mar 12:53:40 12:57:52 71° 258° (WSW) 13:02:05 437.405
ESTCUBE 1 30 Mar 13:02:28 13:06:11 25° 94° (E) 13:09:58 437.505/2401.250
NANOSAT C BR1 30 Mar 13:04:05 13:08:12 53° 260° (W) 13:12:21 145.865
UKube-1 30 Mar 13:07:27 13:11:45 64° 286° (WNW) 13:16:01 .
AAUSAT CUBESAT 2 30 Mar 13:08:27 13:09:56 11° 295° (WNW) 13:11:12 437.432
POLYITAN 1 30 Mar 13:09:05 13:13:08 45° 261° (W) 13:17:12 437.675
HUMSAT D 30 Mar 13:11:04 13:15:20 79° 284° (WNW) 13:19:37 437.325/437.525
BEESAT 2 30 Mar 13:14:38 13:17:57 22° 313° (NW) 13:21:14 435.950
UNISAT 6 30 Mar 13:17:38 13:20:53 20° 267° (W) 13:24:04 437.425
DX 1 30 Mar 13:18:45 13:22:54 45° 288° (WNW) 13:27:01 434.975-435.025
TIGRISAT 30 Mar 13:28:08 13:30:54 16° 269° (W) 13:33:32 435.000
PHONESAT 2.4 30 Mar 13:33:47 13:36:08 17° 211° (SSW) 13:38:26 2401.200-2431.200
Oscar 11 30 Mar 13:38:56 13:40:44 12° 296° (WNW) 13:42:19 145.826/435.025
QB50P1 30 Mar 13:47:16 13:50:15 18° 268° (W) 13:53:06 145.935-145.965
DUCHIFAT 1 30 Mar 13:48:44 13:51:41 18° 268° (W) 13:54:29 145.980
50 SAT 30 Mar 13:49:14 13:53:03 41° 287° (WNW) 13:56:52 437.505
FUNcube-1 30 Mar 13:49:51 13:52:47 17° 293° (WNW) 13:55:35 145.935
TISAT 1 30 Mar 13:53:32 13:56:11 17° 92° (E) 13:58:59 437.305
BEESAT 3 30 Mar 13:54:13 13:54:48 10° 323° (NW) 13:55:13 437.485
UWE-3 30 Mar 13:57:03 13:58:56 12° 295° (WNW) 14:00:37 435.000/436.395/437.385
CUBEBUG 1 30 Mar 13:59:23 14:03:44 84° 284° (WNW) 14:08:03 437.445
VELOX 1 30 Mar 14:01:51 14:05:55 36° 289° (WNW) 14:09:56 145.980
QB50P2 30 Mar 14:03:49 14:05:34 12° 271° (W) 14:07:06 145.880/145.840
ZACube-1 30 Mar 14:03:54 14:05:52 12° 295° (WNW) 14:07:37 437.345
Oscar 19 30 Mar 14:04:39 14:08:28 22° 66° (ENE) 14:12:26 437.125/150
SPROUT 30 Mar 14:05:53 14:09:35 28° 95° (E) 14:13:19 437.525
AISAT 30 Mar 14:06:59 14:10:54 31° 290° (WNW) 14:14:46 437.250
AIST 2 30 Mar 14:32:39 14:34:51 13° 320° (NW) 14:36:54 435.215
YUBILEINY 30 Mar 14:34:58 14:42:28 34° 86° (E) 14:50:12 435.215
ESTCUBE 1 30 Mar 14:39:08 14:43:05 29° 290° (WNW) 14:46:56 437.505/2401.250
O/OREOS (USA 219) 30 Mar 14:53:33 14:57:25 27° 59° (ENE) 15:01:17 437.305
SWISSCUBE 30 Mar 15:00:56 15:03:54 17° 91° (E) 15:07:01 437.505
BEESAT 30 Mar 15:03:48 15:06:41 16° 90° (E) 15:09:47 436.000
ITAMSAT 1 30 Mar 15:11:09 15:15:39 31° 68° (ENE) 15:20:13 435.822/435.867
AO-7 30 Mar 15:11:49 15:14:07 12° 46° (NE) 15:16:54 29.400- 29.500
PCSat 30 Mar 15:25:23 15:29:27 23° 108° (ESE) 15:33:41 145.827
TISAT 1 30 Mar 15:28:17 15:32:12 38° 288° (WNW) 15:36:04 437.305
SPROUT 30 Mar 15:42:07 15:45:36 24° 291° (WNW) 15:49:00 437.525
Oscar 19 30 Mar 15:42:42 15:47:34 44° 261° (W) 15:52:28 437.125/150
ITUPSAT 1 30 Mar 15:49:56 15:54:35 48° 99° (E) 15:59:12 437.325
Gurwin Techsat 1B 30 Mar 16:04:11 16:09:29 76° 75° (ENE) 16:14:49 435.225
HORYU 2 30 Mar 16:09:47 16:12:46 18° 66° (ENE) 16:15:54 437.375
AIST 1 30 Mar 16:21:02 16:24:36 25° 74° (ENE) 16:28:12
YUBILEINY 30 Mar 16:30:28 16:39:01 52° 285° (WNW) 16:47:34 435.215
O/OREOS (USA 219) 30 Mar 16:32:53 16:36:50 28° 256° (WSW) 16:40:39 437.305
KKS-1 30 Mar 16:34:26 16:38:08 26° 95° (E) 16:41:54 437.445
SWISSCUBE 30 Mar 16:37:28 16:42:07 50° 287° (WNW) 16:46:42 437.505
BEESAT 30 Mar 16:40:15 16:44:55 51° 288° (WNW) 16:49:31 436.000
JAS-2 30 Mar 16:42:12 16:47:59 29° 62° (ENE) 16:54:21 435.910
ITAMSAT 1 30 Mar 16:50:27 16:55:07 32° 264° (W) 16:59:44 435.822/435.867
AO-7 30 Mar 16:57:18 17:05:13 53° 66° (ENE) 17:13:14 29.400- 29.500
STARS 30 Mar 17:04:05 17:08:06 34° 97° (E) 17:12:09 437.465
PCSat 30 Mar 17:07:20 17:12:34 49° 304° (NW) 17:17:51 145.827
ITUPSAT 1 30 Mar 17:28:48 17:32:09 19° 295° (WNW) 17:35:21 437.325
HORYU 2 30 Mar 17:44:57 17:49:09 41° 262° (W) 17:53:22 437.375
Gurwin Techsat 1B 30 Mar 17:47:43 17:50:09 13° 273° (W) 17:52:16 435.225
AIST 1 30 Mar 17:58:41 18:02:13 24° 270° (W) 18:05:38
KKS-1 30 Mar 18:10:56 18:14:46 28° 291° (WNW) 18:18:31 437.445
MOZHAYETS 4 30 Mar 18:16:24 18:19:42 20° 92° (E) 18:23:08
JAS-2 30 Mar 18:25:44 18:32:31 59° 262° (W) 18:40:02 435.910
STARS 30 Mar 18:41:01 18:44:23 21° 293° (WNW) 18:47:40 437.465
AUBIESAT-1 30 Mar 18:46:29 18:47:35 11° 91° (E) 18:49:00 437.475
